Location: Namasale
(1.5000°N, 32.6167°E)
Time: 01:43:11
(UTC+00:00)

N. Korean satellite - Pass Details

Date: 08 December 2021
Orbit: 447 x 490 km, 97.3° (Epoch: 27 January)

Event Time Altitude Azimuth Distance (km) Brightness Sun altitude
Rises 03:07:24 0° 353° (N) 2,439 9.8 -8.4°
Reaches altitude 10° 03:09:35 10° 341° (NNW) 1,576 8.8 -7.9°
Maximum altitude 03:12:31 28° 281° (W) 887 7.3 -7.2°
Drops below altitude 10° 03:15:30 10° 220° (SW) 1,601 9.0 -6.5°
Sets 03:17:44 0° 208° (SSW) 2,486 10.1 -6.0°
